IRIDIUM 109

Last updated on Tue Sep 22 2026 00:03:20 GMT+0000 (Coordinated Universal Time)

1 41919U 17003C 26264.16041070 .00000159 00000+0 49864-4 0 9993 2 41919 86.3951 48.3590 0002145 91.8127 268.3315 14.34215546506955
UTC large
Height (km)
Speed (km/s)
/
Latitude / Longitude
Inclination (degrees)
Orbital Period (minutes)
Azimuth
Elevation
Range (km)
Doppler Factor

Next 0 passes for location: London (51.5072 / 0.1276)

No passes found over London.
IRIDIUM 109